Monticello, IA

6:13 AM CDT on September 28, 2016 (GMT -0500)
Monticello Regional

Weather History for KMXO - January, 2014

Change the Weather History Date:

Wednesday, January 1, 2014

  Actual Average Record
Temperature  
Mean Temperature 8 °F -  
Max Temperature 12 °F 29 °F 46 °F (2000)
Min Temperature 3 °F 14 °F -5 °F (1999)
Degree Days  
Heating Degree Days 58    
Moisture  
Dew Point 1 °F    
Average Humidity 75    
Maximum Humidity 85    
Minimum Humidity 62    
Precipitation  
Precipitation 0.00 in - - ()
Sea Level Pressure  
Sea Level Pressure 30.27 in    
Wind  
Wind Speed 10 mph (NE)    
Max Wind Speed 15 mph    
Max Gust Speed 23 mph    
Visibility 7 miles    
Events Snow    
Averages and records for this station are not official NWS values.
T = Trace of Precipitation, MM = Missing Value Source: NWS Daily Summary

Daily Weather History Graph

Daily Weather History Graph

Search for Another Location

Airport or City:

Trip Planner

Search our weather history database for the weather conditions in past years. The results will help you decide how hot, cold, wet, or windy it might be!

Date:

Astronomy

Jan. 01, 2014 Rise Set
Actual Time 7:33 AM CST 4:43 PM CST
Civil Twilight 7:01 AM CST 5:15 PM CST
Nautical Twilight 6:26 AM CST 5:50 PM CST
Astronomical Twilight 5:52 AM CST 6:24 PM CST
Moon 7:22 AM CST (1/1) 5:30 PM CST (1/1)
Length of Visible Light 10h 13m
Length of Day
9h 09m
New Moon, 0% of the Moon is Illuminated
Jan 1
New Moon
Jan 7
First Quarter
Jan 15
Full
Jan 23
Last Quarter
Jan 30
New

Hourly Weather History & Observations

Time (CST) Temp. Windchill Dew Point Humidity Pressure Visibility Wind Dir Wind Speed Gust Speed Precip Events Conditions
12:15 AM 8.6 °F -4.7 °F 3.2 °F 79% 30.25 in 10.0 mi NE 9.2 mph - N/A   Overcast
12:35 AM 8.6 °F -3.7 °F 3.2 °F 79% 30.25 in 10.0 mi NE 8.1 mph - N/A   Overcast
12:55 AM 8.6 °F -3.7 °F 3.2 °F 79% 30.24 in 10.0 mi NE 8.1 mph 13.8 mph N/A   Overcast
1:15 AM 8.6 °F -4.7 °F 1.4 °F 73% 30.25 in 10.0 mi NE 9.2 mph 15.0 mph N/A   Overcast
1:35 AM 8.6 °F -6.3 °F 1.4 °F 73% 30.25 in 10.0 mi ENE 11.5 mph 18.4 mph N/A   Overcast
1:55 AM 8.6 °F -5.5 °F 1.4 °F 73% 30.25 in 10.0 mi ENE 10.4 mph 17.3 mph N/A   Overcast
2:15 AM 8.6 °F -3.7 °F 1.4 °F 73% 30.25 in 10.0 mi ENE 8.1 mph 15.0 mph N/A   Overcast
2:35 AM 6.8 °F -8.6 °F 1.4 °F 79% 30.25 in 10.0 mi ENE 11.5 mph 17.3 mph N/A   Overcast
2:55 AM 6.8 °F -6.9 °F 3.2 °F 85% 30.25 in 9.0 mi ENE 9.2 mph 17.3 mph N/A   Overcast
3:15 AM 6.8 °F -8.6 °F 3.2 °F 85% 30.25 in 10.0 mi ENE 11.5 mph 17.3 mph N/A   Overcast
3:35 AM 6.8 °F -7.8 °F 3.2 °F 85% 30.25 in 10.0 mi NE 10.4 mph 17.3 mph N/A   Overcast
3:55 AM 6.8 °F -6.9 °F 3.2 °F 85% 30.26 in 9.0 mi ENE 9.2 mph 15.0 mph N/A   Overcast
4:15 AM 6.8 °F -8.6 °F 3.2 °F 85% 30.25 in 8.0 mi NE 11.5 mph 17.3 mph N/A Snow Light Snow
4:35 AM 6.8 °F -8.6 °F 3.2 °F 85% 30.25 in 7.0 mi ENE 11.5 mph 18.4 mph N/A   Overcast
4:55 AM 6.8 °F -7.8 °F 1.4 °F 79% 30.24 in 6.0 mi NE 10.4 mph 16.1 mph N/A Snow Light Snow
5:15 AM 6.8 °F -7.8 °F 1.4 °F 79% 30.24 in 3.0 mi NE 10.4 mph - N/A Snow Light Snow
5:35 AM 6.8 °F -6.9 °F 1.4 °F 79% 30.24 in 4.0 mi NE 9.2 mph 16.1 mph N/A Snow Light Snow
5:55 AM 6.8 °F -6.9 °F -0.4 °F 72% 30.25 in 5.0 mi NE 9.2 mph 17.3 mph N/A Snow Light Snow
6:15 AM 6.8 °F -8.6 °F -0.4 °F 72% 30.26 in 7.0 mi NE 11.5 mph 17.3 mph N/A Snow Light Snow
6:35 AM 5.0 °F -13.0 °F -0.4 °F 78% 30.27 in 1.8 mi NE 15.0 mph - N/A Snow Light Snow
6:55 AM 5.0 °F -12.3 °F -0.4 °F 78% 30.27 in 2.0 mi NE 13.8 mph - N/A Snow Light Snow
7:15 AM 3.2 °F -13.1 °F -2.2 °F 78% 30.27 in 1.8 mi NE 11.5 mph 21.9 mph N/A Snow Light Snow
7:35 AM 3.2 °F -14.6 °F -2.2 °F 78% 30.28 in 1.0 mi NNE 13.8 mph - N/A Snow Light Snow
7:55 AM 3.2 °F -13.1 °F -2.2 °F 78% 30.27 in 0.8 mi NE 11.5 mph 18.4 mph N/A Snow Light Snow
8:15 AM 3.2 °F -14.6 °F -2.2 °F 78% 30.28 in 1.0 mi NE 13.8 mph 20.7 mph N/A Snow Light Snow
8:35 AM 5.0 °F -9.1 °F -2.2 °F 72% 30.29 in 1.2 mi NE 9.2 mph 16.1 mph N/A Snow Light Snow
8:55 AM 5.0 °F -10.8 °F -0.4 °F 78% 30.28 in 2.0 mi NE 11.5 mph 19.6 mph N/A Snow Light Snow
9:15 AM 5.0 °F -10.0 °F -0.4 °F 78% 30.28 in 1.8 mi NE 10.4 mph 19.6 mph N/A Snow Light Snow
9:35 AM 5.0 °F -12.3 °F -0.4 °F 78% 30.29 in 2.0 mi NE 13.8 mph - N/A Snow Light Snow
9:55 AM 6.8 °F -8.6 °F -0.4 °F 72% 30.29 in 5.0 mi NNE 11.5 mph 18.4 mph N/A Snow Light Snow
10:15 AM 6.8 °F -8.6 °F 1.4 °F 79% 30.29 in 3.0 mi NE 11.5 mph - N/A Snow Light Snow
10:35 AM 6.8 °F -6.9 °F 1.4 °F 79% 30.28 in 2.0 mi NNE 9.2 mph 17.3 mph N/A Snow Light Snow
10:55 AM 6.8 °F -9.3 °F 1.4 °F 79% 30.28 in 3.0 mi NNE 12.7 mph 23.0 mph N/A   Haze
11:15 AM 6.8 °F -8.6 °F 1.4 °F 79% 30.29 in 3.0 mi NE 11.5 mph 18.4 mph N/A   Haze
11:35 AM 8.6 °F -6.3 °F 1.4 °F 73% 30.28 in 2.5 mi NE 11.5 mph - N/A Snow Light Snow
11:55 AM 8.6 °F -4.7 °F 3.2 °F 79% 30.27 in 1.0 mi NNE 9.2 mph 16.1 mph N/A Snow Light Snow
12:15 PM 8.6 °F -4.7 °F 3.2 °F 79% 30.26 in 0.8 mi NNE 9.2 mph 16.1 mph N/A Snow Light Snow
12:35 PM 8.6 °F -4.7 °F 3.2 °F 79% 30.26 in 1.2 mi NE 9.2 mph 19.6 mph N/A Snow Light Snow
12:55 PM 8.6 °F -7.0 °F 3.2 °F 79% 30.24 in 3.0 mi NE 12.7 mph 19.6 mph N/A Snow Light Snow
1:15 PM 8.6 °F -5.5 °F 3.2 °F 79% 30.24 in 3.0 mi NE 10.4 mph 17.3 mph N/A   Haze
1:35 PM 10.4 °F -4.1 °F 5.0 °F 79% 30.24 in 1.8 mi NE 11.5 mph 20.7 mph N/A Snow Light Snow
1:55 PM 10.4 °F -2.4 °F 5.0 °F 79% 30.23 in 2.0 mi NE 9.2 mph - N/A Snow Light Snow
2:15 PM 10.4 °F -3.3 °F 5.0 °F 79% 30.24 in 3.0 mi NE 10.4 mph 19.6 mph N/A Snow Light Snow
2:35 PM 10.4 °F -3.3 °F 5.0 °F 79% 30.24 in 3.0 mi NNE 10.4 mph 16.1 mph N/A   Haze
2:55 PM 10.4 °F -2.4 °F 5.0 °F 79% 30.24 in 7.0 mi NNE 9.2 mph - N/A   Mostly Cloudy
3:15 PM 10.4 °F -4.1 °F 3.2 °F 73% 30.24 in 10.0 mi NNE 11.5 mph 18.4 mph N/A   Overcast
3:35 PM 10.4 °F -4.1 °F 3.2 °F 73% 30.24 in 10.0 mi NNE 11.5 mph - N/A   Overcast
3:55 PM 12.2 °F -1.0 °F 3.2 °F 67% 30.24 in 10.0 mi NE 10.4 mph 18.4 mph N/A   Overcast
4:15 PM 10.4 °F -2.4 °F 3.2 °F 73% 30.25 in 10.0 mi NNE 9.2 mph - N/A   Overcast
4:35 PM 10.4 °F -3.3 °F 3.2 °F 73% 30.25 in 10.0 mi NNE 10.4 mph 16.1 mph N/A   Overcast
4:55 PM 10.4 °F -3.3 °F 3.2 °F 73% 30.25 in 10.0 mi NNE 10.4 mph - N/A   Scattered Clouds
5:15 PM 10.4 °F -4.8 °F 1.4 °F 67% 30.25 in 10.0 mi NNE 12.7 mph - N/A   Scattered Clouds
5:35 PM 10.4 °F -3.3 °F 1.4 °F 67% 30.26 in 10.0 mi North 10.4 mph - N/A   Scattered Clouds
5:55 PM 8.6 °F -7.7 °F -0.4 °F 67% 30.27 in 10.0 mi NNE 13.8 mph - N/A   Scattered Clouds
6:15 PM 8.6 °F -6.3 °F -0.4 °F 67% 30.28 in 10.0 mi NNE 11.5 mph 18.4 mph N/A   Scattered Clouds
6:35 PM 8.6 °F -7.0 °F -0.4 °F 67% 30.29 in 10.0 mi North 12.7 mph - N/A   Mostly Cloudy
6:55 PM 8.6 °F -6.3 °F -2.2 °F 62% 30.29 in 10.0 mi NNE 11.5 mph - N/A   Mostly Cloudy
7:15 PM 8.6 °F -5.5 °F -0.4 °F 67% 30.29 in 10.0 mi North 10.4 mph - N/A   Overcast
7:35 PM 8.6 °F -5.5 °F -2.2 °F 62% 30.29 in 10.0 mi North 10.4 mph - N/A   Overcast
7:55 PM 8.6 °F -4.7 °F -0.4 °F 67% 30.29 in 10.0 mi North 9.2 mph - N/A   Overcast
8:15 PM 8.6 °F -4.7 °F -0.4 °F 67% 30.29 in 10.0 mi NNE 9.2 mph - N/A   Overcast
8:35 PM 8.6 °F -5.5 °F -0.4 °F 67% 30.29 in 10.0 mi NNE 10.4 mph - N/A   Overcast
8:55 PM 10.4 °F -2.4 °F 1.4 °F 67% 30.30 in 10.0 mi North 9.2 mph - N/A   Overcast
9:15 PM 10.4 °F -1.5 °F 1.4 °F 67% 30.30 in 10.0 mi NNE 8.1 mph - N/A Snow Light Snow
9:35 PM 8.6 °F -3.7 °F 1.4 °F 73% 30.30 in 10.0 mi NNE 8.1 mph - N/A Snow Light Snow
9:55 PM 8.6 °F -4.7 °F 1.4 °F 73% 30.30 in 10.0 mi NNE 9.2 mph - N/A   Overcast
10:15 PM 8.6 °F 0.1 °F 1.4 °F 73% 30.30 in 10.0 mi NE 4.6 mph - N/A   Overcast
10:35 PM 8.6 °F -2.6 °F 1.4 °F 73% 30.29 in 10.0 mi NE 6.9 mph - N/A   Mostly Cloudy
10:55 PM 8.6 °F -3.7 °F 1.4 °F 73% 30.28 in 10.0 mi NNE 8.1 mph - N/A   Mostly Cloudy
11:15 PM 8.6 °F -5.5 °F 1.4 °F 73% 30.28 in 10.0 mi NNE 10.4 mph - N/A   Overcast
11:35 PM 8.6 °F -3.7 °F -0.4 °F 67% 30.28 in 10.0 mi NNE 8.1 mph 15.0 mph N/A   Overcast
11:55 PM 8.6 °F -5.5 °F -0.4 °F 67% 30.27 in 10.0 mi NNE 10.4 mph - N/A   Overcast